Waarnemingen

Advertentie
Mijn weer
Paharova, Zweden (2184): temperatuur & dauwpunt: 12.01.2020 14:00:00 - 18.01.2020 14:00:00 (CET)Paharova, Zweden (2184): windsnelheid & windstoten: 12.01.2020 14:00:00 - 18.01.2020 14:00:00 (CET)Paharova, Zweden (2184): windrichting: 12.01.2020 14:00:00 - 18.01.2020 14:00:00 (CET)Paharova, Zweden (2184): luchtdruk: 12.01.2020 14:00:00 - 18.01.2020 14:00:00 (CET)Paharova, Zweden (2184): zicht: 12.01.2020 14:00:00 - 18.01.2020 14:00:00 (CET)Paharova, Zweden (2184): neerslag: 12.01.2020 14:00:00 - 18.01.2020 14:00:00 (CET)
Datum & Tijd tt [°C] td [°C] ff [km/u] ff [kn] fx [km/u] fx [kn] dd ppp [hPa] vv [km] rr [mm]
18.01.2020 14:00:00 -8,9 -10,0 7 4 14 8 N 1005,9 11 0,0
18.01.2020 13:00:00 -8,8 -9,9 7 4 13 7 NNO 1006,3 9 0,0
18.01.2020 12:00:00 -8,9 -10,0 5 3 10 6 NNO 1006,6 15 -
18.01.2020 11:00:00 -8,9 -10,0 6 3 12 6 NNO 1007,1 36 0,0
18.01.2020 10:00:00 -9,1 -10,2 5 3 10 6 NNO 1007,7 16 0,0
18.01.2020 09:00:00 -9,0 -10,1 5 3 10 5 NNO 1007,8 5 0,0
18.01.2020 08:00:00 -8,9 -10,0 4 2 9 5 NNO 1008,0 2,8 0,1
18.01.2020 07:00:00 -8,9 -10,0 4 2 9 5 NO 1008,2 5 -
18.01.2020 06:00:00 -9,0 -10,1 4 2 11 6 NO 1008,4 19 0,0
18.01.2020 05:00:00 -9,0 -10,1 5 3 9 5 NNO 1009,4 23 -
18.01.2020 04:00:00 -9,0 -10,1 4 2 8 4 NO 1009,7 9 -
18.01.2020 03:00:00 -8,9 -10,0 4 2 7 4 NNO 1010,3 18 0,0
18.01.2020 02:00:00 -8,9 -10,0 4 2 8 4 NNO 1010,8 10 -
18.01.2020 01:00:00 -8,8 -9,9 4 2 8 5 NNO 1011,1 20 0,0
18.01.2020 00:00:00 -8,7 -9,8 2 1 10 6 NO 1011,7 27 0,0
17.01.2020 23:00:00 -8,6 -9,5 4 2 8 5 NO 1011,9 33 0,0
17.01.2020 22:00:00 -8,6 -9,5 4 2 9 5 NNO 1012,9 31 0,0
17.01.2020 21:00:00 -8,5 -9,4 5 3 12 7 NO 1012,8 30 0,0
17.01.2020 20:00:00 -8,3 -9,2 3 2 9 5 NNO 1013,4 24 0,0
17.01.2020 19:00:00 -8,3 -9,2 4 2 9 5 NO 1013,5 24 0,0
17.01.2020 18:00:00 -8,4 -9,3 4 2 8 5 NNO 1013,4 23 0,0
17.01.2020 17:00:00 -8,2 -9,1 4 2 10 5 NO 1013,3 17 0,0
17.01.2020 16:00:00 -8,3 -9,2 4 2 9 5 NO 1013,0 15 0,0
17.01.2020 15:00:00 -9,2 -10,1 4 2 5 3 NNO 1012,9 14 0,0
17.01.2020 14:00:00 -10,7 -12,0 0 0 7 4 N 1012,8 28 0,0
17.01.2020 13:00:00 -11,1 -12,3 3 2 5 3 NNO 1011,9 32 0,0
17.01.2020 12:00:00 -11,6 -12,9 0 0 3 2 N 1011,8 33 0,0
17.01.2020 11:00:00 -12,1 -13,4 0 0 7 4 N 1010,8 41 0,0
17.01.2020 10:00:00 -11,2 -12,5 0 0 8 5 N 1010,1 33 0,0
17.01.2020 09:00:00 -10,4 -11,6 4 2 9 5 N 1008,8 42 0,0
17.01.2020 08:00:00 -11,7 -13,0 0 0 4 2 N 1007,9 26 0,0
17.01.2020 07:00:00 -11,7 -13,0 0 0 3 2 N 1007,4 12 0,0
17.01.2020 06:00:00 -12,0 -13,3 0 0 4 2 N 1006,3 31 0,0
17.01.2020 05:00:00 -11,6 -12,9 2 1 5 3 NNW 1004,6 30 0,0
17.01.2020 04:00:00 -10,8 -12,0 0 0 5 3 N 1003,6 24 0,0
17.01.2020 03:00:00 -8,8 -9,7 3 2 7 4 WNW 1002,9 20 0,0
17.01.2020 02:00:00 -8,8 -9,7 0 0 5 3 N 1002,3 14 0,0
17.01.2020 01:00:00 -9,6 -10,7 0 0 5 3 N 1001,6 16 0,0
17.01.2020 00:00:00 -9,7 -10,8 2 1 5 3 Z 1001,4 16 0,0
16.01.2020 23:00:00 -9,0 -10,1 3 2 10 5 Z 1001,3 16 0,0
16.01.2020 22:00:00 -9,1 -10,2 4 2 13 7 Z 1001,0 2,4 0,4
16.01.2020 21:00:00 -8,9 -10,0 5 3 11 6 Z 1001,0 4,2 0,3
16.01.2020 20:00:00 -8,9 -10,0 6 3 10 5 ZZO 1001,1 10 0,1
16.01.2020 19:00:00 -9,2 -10,3 4 2 9 5 Z 1001,6 4,5 0,1
16.01.2020 18:00:00 -9,2 -10,3 3 2 8 4 ZZO 1001,3 33 0,0
16.01.2020 17:00:00 -9,1 -10,2 3 2 8 4 ZO 1001,8 20 0,0
16.01.2020 16:00:00 -9,1 -10,2 0 0 4 2 N 1001,8 20 0,0
16.01.2020 15:00:00 -9,1 -10,2 0 0 5 3 N 1001,8 15 0,0
16.01.2020 14:00:00 -8,9 -10,0 0 0 4 2 N 1001,9 8 0,0
16.01.2020 13:00:00 -9,0 -10,1 0 0 3 2 N 1001,7 2,3 0,0
16.01.2020 12:00:00 -8,9 -10,0 0 0 4 2 N 1001,2 2,2 0,0
16.01.2020 11:00:00 -8,7 -9,6 0 0 6 3 N 1000,3 1,1 0,0
16.01.2020 10:00:00 -8,5 -9,4 3 2 6 3 N 999,7 2,0 0,0
16.01.2020 09:00:00 -8,3 -9,2 4 2 6 3 N 999,0 3,6 0,0
16.01.2020 08:00:00 -8,1 -9,0 4 2 8 4 NNO 998,2 2,7 0,0
16.01.2020 07:00:00 -7,8 -8,6 3 2 7 4 N 997,6 1,4 0,0
16.01.2020 06:00:00 -9,0 -10,1 4 2 6 3 N 997,2 14 0,0
16.01.2020 05:00:00 -9,6 -10,7 0 0 4 2 N 996,4 32 0,0
16.01.2020 04:00:00 -9,7 -10,8 0 0 5 3 N 995,4 30 0,0
16.01.2020 03:00:00 -10,4 -11,6 0 0 4 2 N 995,0 27 0,0
16.01.2020 02:00:00 -10,4 -11,6 0 0 6 3 N 994,0 17 0,0
16.01.2020 01:00:00 -10,9 -12,1 3 2 9 5 N 993,3 15 -
16.01.2020 00:00:00 -11,6 -12,8 4 2 7 4 N 992,6 50 0,0
15.01.2020 23:00:00 -11,8 -13,1 3 2 6 3 NNW 991,7 50 0,0
15.01.2020 22:00:00 -12,4 -13,8 0 0 6 3 N 990,7 50 0,0
15.01.2020 21:00:00 -12,4 -13,8 0 0 8 4 N 989,9 50 0,0
15.01.2020 20:00:00 -11,3 -12,6 3 2 7 4 N 988,9 50 0,0
15.01.2020 19:00:00 -8,8 -9,7 3 2 11 6 N 987,6 50 0,0
15.01.2020 18:00:00 -8,1 -9,0 4 2 10 5 N 986,4 4,3 0,0
15.01.2020 17:00:00 -8,0 -8,8 5 3 11 6 N 985,4 2,1 0,0
15.01.2020 16:00:00 -8,1 -8,9 6 3 14 7 NNO 984,7 0,8 0,0
15.01.2020 15:00:00 -8,4 -9,2 5 3 10 6 NNO 984,4 3,3 0,0
15.01.2020 14:00:00 -8,8 -9,6 5 3 10 5 NO 983,8 3,3 0,0
15.01.2020 13:00:00 -9,5 -10,4 5 3 11 6 NO 983,7 50 0,0
15.01.2020 12:00:00 -9,2 -10,4 2 1 6 3 NO 983,2 50 0,0
15.01.2020 11:00:00 -5,6 -6,3 4 2 11 6 Z 982,9 50 0,0
15.01.2020 10:00:00 -5,5 -6,2 5 3 9 5 ZZO 982,8 50 0,0
15.01.2020 09:00:00 -5,2 -5,9 5 3 10 6 Z 982,5 50 0,0
15.01.2020 08:00:00 -4,4 -4,9 5 3 12 6 Z 982,1 50 0,0
15.01.2020 07:00:00 -4,4 -4,9 5 3 11 6 ZZW 981,7 50 0,0
15.01.2020 06:00:00 -3,8 -4,2 5 3 13 7 Z 981,9 50 0,0
15.01.2020 05:00:00 -3,3 -3,6 5 3 10 6 ZZW 981,4 50 0,0
15.01.2020 04:00:00 -2,7 -3,0 4 2 13 7 ZZW 981,3 50 0,0
15.01.2020 03:00:00 -1,8 -2,1 6 3 13 7 ZZW 980,7 50 0,0
15.01.2020 02:00:00 -1,5 -1,6 6 4 14 8 Z 980,7 50 0,0
15.01.2020 01:00:00 -1,1 -1,2 7 4 15 8 ZW 980,6 50 0,0
15.01.2020 00:00:00 -1,3 -1,4 6 4 19 11 ZZW 980,3 50 0,0
14.01.2020 23:00:00 -0,9 -1,0 8 4 18 10 Z 980,3 50 0,0
14.01.2020 22:00:00 -0,7 -0,8 9 5 24 13 Z 980,4 3,2 0,1
14.01.2020 21:00:00 -0,7 -0,8 11 6 24 13 Z 980,5 5 0,2
14.01.2020 20:00:00 -0,7 -0,8 14 8 30 16 ZZO 981,2 3,1 0,3
14.01.2020 19:00:00 -0,7 -0,8 15 8 35 19 ZZO 982,1 0,8 0,7
14.01.2020 18:00:00 -0,6 -0,7 16 9 42 23 ZZO 983,4 0,6 0,9
14.01.2020 17:00:00 -1,1 -1,4 13 7 32 18 ZO 985,1 1,0 0,5
14.01.2020 16:00:00 -2,6 -3,3 15 8 33 18 ZZO 987,1 6 0,1
14.01.2020 15:00:00 -4,0 -5,1 18 10 32 17 ZZO 988,6 8 0,0
14.01.2020 14:00:00 -4,1 -5,2 12 6 25 14 ZZO 989,5 50 0,0
14.01.2020 13:00:00 -3,9 -4,4 9 5 21 11 ZZO 990,1 50 0,0
14.01.2020 12:00:00 -4,9 -5,9 10 5 16 9 OZO 990,7 50 0,0
14.01.2020 11:00:00 -4,0 -5,1 10 6 23 12 ZO 991,6 50 0,0
14.01.2020 10:00:00 -4,5 -5,6 5 3 10 5 ZZO 992,3 50 0,0
14.01.2020 09:00:00 -3,9 -5,0 6 3 15 8 Z 992,5 50 0,0
14.01.2020 08:00:00 -4,6 -5,7 6 4 16 9 Z 993,1 50 0,0
14.01.2020 07:00:00 -4,2 -5,3 6 4 17 9 ZZO 992,9 50 0,0
14.01.2020 06:00:00 -4,4 -5,5 9 5 17 9 Z 992,9 50 0,0
14.01.2020 05:00:00 -8,3 -9,4 8 4 15 8 ZZW 993,4 50 0,0
14.01.2020 04:00:00 -5,5 -6,6 8 5 14 8 Z 992,5 50 0,0
14.01.2020 03:00:00 -5,3 -6,0 4 2 9 5 ZW 992,3 50 0,0
14.01.2020 02:00:00 -5,1 -5,9 4 2 10 6 ZZW 991,4 50 0,0
14.01.2020 01:00:00 -5,2 -6,0 5 3 14 8 ZW 991,2 50 0,0
14.01.2020 00:00:00 -6,7 -7,4 4 2 12 6 Z 991,3 50 0,0
13.01.2020 23:00:00 -7,3 -8,1 6 4 11 6 ZW 990,7 50 0,0
13.01.2020 22:00:00 -6,0 -6,5 4 2 9 5 ZZW 989,9 50 0,0
13.01.2020 21:00:00 -7,7 -8,2 4 2 12 6 ZW 989,4 50 0,0
13.01.2020 20:00:00 -5,3 -6,1 4 2 19 10 Z 988,2 50 0,0
13.01.2020 19:00:00 -4,1 -5,2 8 5 17 9 ZZO 988,0 50 0,0
13.01.2020 18:00:00 -3,7 -5,1 7 4 18 10 Z 988,1 50 0,0
13.01.2020 17:00:00 -3,9 -5,3 10 5 20 11 Z 987,9 50 0,0
13.01.2020 16:00:00 -4,9 -6,1 6 4 16 9 Z 988,1 50 0,0
13.01.2020 15:00:00 -5,2 -6,6 5 3 15 8 ZZO 988,7 50 0,0
13.01.2020 14:00:00 -5,2 -6,4 8 4 14 8 Z 988,9 50 0,0
13.01.2020 13:00:00 -6,1 -7,3 5 3 16 9 ZZW 989,3 50 0,0
13.01.2020 12:00:00 -5,6 -6,7 8 4 21 11 Z 989,1 50 0,0
13.01.2020 11:00:00 -6,1 -7,0 6 4 16 8 Z 989,2 50 0,0
13.01.2020 10:00:00 -6,4 -7,5 7 4 19 10 ZZW 989,7 50 0,0
13.01.2020 09:00:00 -6,9 -8,0 8 4 14 8 Z 989,4 50 0,0
13.01.2020 08:00:00 -6,8 -7,5 5 3 13 7 Z 988,9 50 0,0
13.01.2020 07:00:00 -7,4 -8,3 7 4 16 9 ZZW 988,8 50 0,0
13.01.2020 06:00:00 -6,9 -8,0 7 4 14 8 Z 988,6 50 0,0
13.01.2020 05:00:00 -6,1 -7,2 9 5 16 9 Z 988,4 50 0,0
13.01.2020 04:00:00 -6,0 -7,2 7 4 14 8 Z 988,7 50 0,0
13.01.2020 03:00:00 -5,7 -6,8 7 4 14 8 Z 988,7 50 0,0
13.01.2020 02:00:00 -5,8 -7,0 7 4 14 7 Z 988,6 40 0,0
13.01.2020 01:00:00 -7,8 -8,9 5 3 13 7 Z 988,7 18 0,0
13.01.2020 00:00:00 -7,0 -7,8 4 2 8 4 ZZW 988,4 19 0,0
12.01.2020 23:00:00 -6,8 -8,0 3 2 9 5 ZZW 988,7 16 0,0
12.01.2020 22:00:00 -6,4 -7,5 5 3 9 5 Z 988,4 15 0,0
12.01.2020 21:00:00 -7,7 -10,2 0 0 7 4 N 988,0 19 0,0
12.01.2020 20:00:00 -6,8 -8,0 0 0 13 7 N 987,1 20 0,0
12.01.2020 19:00:00 -6,1 -7,8 3 2 10 6 WNW 986,8 19 0,0
12.01.2020 18:00:00 -5,0 -7,3 4 2 17 9 W 986,0 21 0,0
12.01.2020 17:00:00 -4,8 -6,6 6 3 11 6 W 985,6 20 0,0
12.01.2020 16:00:00 -3,3 -5,5 6 4 17 9 W 985,0 24 0,0
12.01.2020 15:00:00 -3,0 -4,6 4 2 21 11 WNW 984,4 27 0,0
12.01.2020 14:00:00 -2,0 -3,6 9 5 22 12 W 983,8 37 0,0

tt = temperatuur
td = dauwpunt
ff = windsnelheid
fx = windstoten
dd = windrichting
ppp = luchtdruk
vv = zicht
rr = neerslag

Weerstations in de omgeving